{"data":{"norad_id":57624,"epoch":"2026-05-25T02:57:21.449088Z","epoch_age_seconds":60482,"freshness":"FRESH","line1":"1 57624U 23120A   26145.12316492 -.00000181  00000+0  00000+0 0  9997","line2":"2 57624  15.1143 194.5316 0001105  84.7220  97.4468  1.00274046 10317","mean_motion":1.00274046,"eccentricity":0.0001105,"inclination_deg":15.1143,"raan_deg":194.5316,"arg_perigee_deg":84.722,"mean_anomaly_deg":97.4468,"bstar":0,"rev_number":1031,"period_min":1436.0645226183,"perigee_km":35781.30199988,"apogee_km":35790.620265568,"semimajor_km":42164.098132724,"source":"CELESTRAK","updated_at":"2026-05-25T13:38:14.142897Z"}}